EW8702 Weather Reports


Display with metric or nautical units.
time (UTC)temp
F
wind
direction
speed
MPH
gust
MPH
rain 1hr
in
rain 24hr
in
rain mn
in
humidity
%
barometer
mb
20260903035122 61 324 0.0 2.0 0.00 0.00 0.00 37 1013.2
20260903034122 62 324 0.0 1.0 0.00 0.00 0.00 40 1013.2
20260903033122 62 283 1.0 4.0 0.00 0.00 0.00 33 1013.1
20260903032122 63 0 0.0 1.0 0.00 0.00 0.00 32 1013.0
20260903031122 63 323 0.0 2.0 0.00 0.00 0.00 32 1013.0
20260903030122 63 328 0.0 4.0 0.00 0.00 0.00 33 1012.9
20260903025143 63 340 3.0 5.0 0.00 0.00 0.00 33 1012.7
20260903024122 64 320 0.0 1.0 0.00 0.00 0.00 37 1012.5
20260903023122 64 305 0.0 2.0 0.00 0.00 0.00 38 1012.5
20260903022122 65 278 2.0 4.0 0.00 0.00 0.00 37 1012.5
20260903021122 65 275 1.0 3.0 0.00 0.00 0.00 40 1012.5
20260903020122 67 278 2.0 4.0 0.00 0.00 0.00 39 1012.5
20260903015122 68 279 1.0 3.0 0.00 0.00 0.00 36 1012.7
20260903014122 69 0 0.0 0.0 0.00 0.00 0.00 33 1012.7
20260903013122 70 279 2.0 3.0 0.00 0.00 0.00 30 1012.7
20260903012122 70 277 1.0 4.0 0.00 0.00 0.00 29 1012.8
20260903011122 71 276 2.0 4.0 0.00 0.00 0.00 30 1013.0
20260903010122 72 272 0.0 2.0 0.00 0.00 0.00 34 1013.1
20260903005122 73 275 3.0 8.0 0.00 0.00 0.00 28 1013.1
20260903004122 73 279 3.0 7.0 0.00 0.00 0.00 27 1013.1
20260903003143 74 301 0.0 4.0 0.00 0.00 0.00 26 1012.9
20260903002122 75 261 1.0 4.0 0.00 0.00 0.00 30 1013.0
20260903001122 75 0 0.0 0.0 0.00 0.00 0.00 27 1012.9
20260903000143 75 219 0.0 2.0 0.00 0.00 0.00 27 1013.0
20260902235122 75 279 0.0 1.0 0.00 0.00 0.00 25 1013.0
20260902234122 76 278 0.0 2.0 0.00 0.00 0.00 23 1013.1
20260902233143 76 269 2.0 9.0 0.00 0.00 0.00 25 1013.2
20260902232122 76 245 1.0 4.0 0.00 0.00 0.00 22 1013.2
20260902231143 77 263 2.0 6.0 0.00 0.00 0.00 21 1013.2
20260902230122 77 258 2.0 7.0 0.00 0.00 0.00 22 1013.2
20260902225143 78 214 2.0 8.0 0.00 0.00 0.00 26 1013.1
20260902224122 79 266 4.0 11.0 0.00 0.00 0.00 21 1013.1
20260902223122 79 200 2.0 7.0 0.00 0.00 0.00 23 1013.2
20260902222143 78 214 3.0 10.0 0.00 0.00 0.00 26 1013.3
20260902221143 78 235 2.0 7.0 0.00 0.00 0.00 25 1013.4
20260902220122 78 245 4.0 10.0 0.00 0.00 0.00 22 1013.5
20260902215122 79 264 4.0 11.0 0.00 0.00 0.00 23 1013.4
20260902214122 80 215 3.0 11.0 0.00 0.00 0.00 24 1013.5
20260902213143 80 212 3.0 8.0 0.00 0.00 0.00 23 1013.5
20260902212143 79 231 4.0 9.0 0.00 0.00 0.00 23 1013.5
20260902211122 79 252 3.0 10.0 0.00 0.00 0.00 26 1013.5
20260902210122 80 206 3.0 8.0 0.00 0.00 0.00 23 1013.7
20260902205143 79 230 4.0 13.0 0.00 0.00 0.00 24 1013.8
20260902204122 79 255 5.0 12.0 0.00 0.00 0.00 24 1013.9
20260902203122 79 236 3.0 8.0 0.00 0.00 0.00 25 1013.8
20260902202122 79 243 5.0 11.0 0.00 0.00 0.00 23 1014.1
20260902201143 79 254 4.0 14.0 0.00 0.00 0.00 24 1014.1
20260902200122 80 227 3.0 12.0 0.00 0.00 0.00 24 1014.2
20260902195122 79 220 3.0 7.0 0.00 0.00 0.00 27 1014.2
20260902194122 79 252 3.0 7.0 0.00 0.00 0.00 25 1014.3
20260902193122 79 169 2.0 6.0 0.00 0.00 0.00 30 1014.4
20260902192122 79 281 2.0 7.0 0.00 0.00 0.00 26 1014.4
20260902191122 80 215 4.0 13.0 0.00 0.00 0.00 26 1014.5
20260902190122 80 205 3.0 8.0 0.00 0.00 0.00 25 1014.7
20260902185122 80 162 3.0 8.0 0.00 0.00 0.00 28 1014.7
20260902184123 79 167 6.0 13.0 0.00 0.00 0.00 28 1014.7
20260902183123 78 173 4.0 11.0 0.00 0.00 0.00 29 1014.8
20260902182123 76 179 3.0 9.0 0.00 0.00 0.00 36 1014.9
20260902181123 75 187 4.0 8.0 0.00 0.00 0.00 32 1015.0
20260902180123 74 169 5.0 14.0 0.00 0.00 0.00 34 1015.1
20260902175122 73 192 5.0 13.0 0.00 0.00 0.00 35 1015.1
20260902174143 75 195 7.0 20.0 0.00 0.00 0.00 38 1015.2
20260902173123 76 185 8.0 19.0 0.00 0.00 0.00 34 1015.3
20260902172122 75 195 7.0 18.0 0.00 0.00 0.00 31 1015.2
20260902171144 73 168 4.0 11.0 0.00 0.00 0.00 39 1015.2
20260902170123 72 190 7.0 16.0 0.00 0.00 0.00 36 1015.4
20260902165144 72 175 5.0 10.0 0.00 0.00 0.00 34 1015.4
20260902164122 71 186 7.0 14.0 0.00 0.00 0.00 36 1015.3
20260902163123 72 182 8.0 15.0 0.00 0.00 0.00 32 1015.2
20260902162123 72 180 8.0 20.0 0.00 0.00 0.00 34 1015.3
20260902161122 72 182 5.0 16.0 0.00 0.00 0.00 34 1015.1
20260902160122 73 190 4.0 21.0 0.00 0.00 0.00 34 1015.0
20260902155122 73 176 2.0 9.0 0.00 0.00 0.00 35 1014.9
20260902154122 72 146 2.0 8.0 0.00 0.00 0.00 34 1014.9
20260902153122 72 161 2.0 7.0 0.00 0.00 0.00 34 1015.0
20260902152123 72 145 3.0 7.0 0.00 0.00 0.00 34 1014.9
20260902151123 71 137 2.0 6.0 0.00 0.00 0.00 35 1015.1
20260902150122 70 200 2.0 10.0 0.00 0.00 0.00 37 1014.9
20260902145123 69 174 3.0 13.0 0.00 0.00 0.00 38 1014.8
20260902144123 68 185 2.0 7.0 0.00 0.00 0.00 39 1014.7
20260902143144 67 180 2.0 7.0 0.00 0.00 0.00 44 1014.6
20260902142122 67 126 1.0 4.0 0.00 0.00 0.00 48 1014.5
20260902141122 67 120 1.0 5.0 0.00 0.00 0.00 48 1014.4
20260902140122 66 118 1.0 4.0 0.00 0.00 0.00 47 1014.2
20260902135144 66 96 2.0 4.0 0.00 0.00 0.00 47 1014.1
20260902134143 65 118 1.0 6.0 0.00 0.00 0.00 47 1014.2
20260902133123 64 109 1.0 3.0 0.00 0.00 0.00 48 1014.4
20260902132122 64 77 2.0 4.0 0.00 0.00 0.00 47 1014.2
20260902131122 63 196 2.0 6.0 0.00 0.00 0.00 48 1014.3
20260902130123 63 130 1.0 3.0 0.00 0.00 0.00 49 1014.0
20260902125123 63 172 1.0 6.0 0.00 0.00 0.00 48 1014.0
20260902124123 63 91 1.0 7.0 0.00 0.00 0.00 49 1013.9
20260902123144 63 161 0.0 3.0 0.00 0.00 0.00 49 1014.0
20260902122122 63 0 0.0 0.0 0.00 0.00 0.00 49 1014.0
20260902121143 63 0 0.0 0.0 0.00 0.00 0.00 49 1013.9
20260902120122 63 80 1.0 4.0 0.00 0.00 0.00 48 1014.0
20260902115122 63 123 1.0 3.0 0.00 0.00 0.00 50 1014.0
20260902114122 62 0 0.0 0.0 0.00 0.00 0.00 51 1014.0
20260902113122 62 0 0.0 0.0 0.00 0.00 0.00 51 1014.1
20260902112143 62 104 2.0 4.0 0.00 0.00 0.00 50 1014.0
20260902111122 62 0 0.0 0.0 0.00 0.00 0.00 52 1014.1
20260902110122 62 145 2.0 4.0 0.00 0.00 0.00 52 1014.0
20260902105122 61 77 2.0 10.0 0.00 0.00 0.00 53 1014.0
20260902104122 61 0 0.0 0.0 0.00 0.00 0.00 55 1014.2
20260902103122 61 107 0.0 3.0 0.00 0.00 0.00 55 1014.3
20260902102122 61 108 1.0 3.0 0.00 0.00 0.00 57 1014.4
20260902101143 62 135 0.0 2.0 0.00 0.00 0.00 56 1014.3
20260902100122 62 108 1.0 4.0 0.00 0.00 0.00 55 1014.5
20260902095122 63 127 0.0 3.0 0.00 0.00 0.00 54 1014.5
20260902094122 63 117 1.0 3.0 0.00 0.00 0.00 54 1014.5
20260902093122 64 91 1.0 3.0 0.00 0.00 0.00 52 1014.6
20260902092122 65 89 2.0 3.0 0.00 0.00 0.00 52 1014.6
20260902091143 66 116 0.0 2.0 0.00 0.00 0.00 50 1014.5
20260902090143 65 77 2.0 4.0 0.00 0.00 0.00 49 1014.4
20260902085122 65 77 2.0 6.0 0.00 0.00 0.00 50 1014.4
20260902084122 64 82 2.0 4.0 0.00 0.00 0.00 52 1014.5
20260902083122 63 82 2.0 4.0 0.00 0.00 0.00 55 1014.5
20260902082143 62 120 1.0 3.0 0.00 0.00 0.00 59 1014.5
20260902081122 63 126 0.0 2.0 0.00 0.00 0.00 59 1014.4
20260902080122 63 126 0.0 3.0 0.00 0.00 0.00 58 1014.5
20260902075122 63 125 0.0 1.0 0.00 0.00 0.00 57 1014.4
20260902074122 63 125 0.0 2.0 0.00 0.00 0.00 57 1014.3
20260902073122 64 116 1.0 5.0 0.00 0.00 0.00 56 1014.4
20260902072143 64 121 0.0 3.0 0.00 0.00 0.00 56 1014.3
20260902071122 65 127 1.0 4.0 0.00 0.00 0.00 54 1014.2
20260902070122 66 153 1.0 4.0 0.00 0.00 0.00 53 1014.2
20260902065122 66 109 2.0 5.0 0.00 0.00 0.00 51 1014.2
20260902064122 66 159 1.0 3.0 0.00 0.00 0.00 52 1014.1
20260902063122 67 110 1.0 3.0 0.00 0.00 0.00 50 1014.0
20260902062122 68 95 1.0 3.0 0.00 0.00 0.00 48 1014.2
20260902061122 68 94 2.0 4.0 0.00 0.00 0.00 47 1014.2
20260902060122 68 90 3.0 8.0 0.00 0.00 0.00 47 1014.3
20260902055122 68 79 3.0 5.0 0.00 0.00 0.00 47 1014.3
20260902054122 67 78 3.0 5.0 0.00 0.00 0.00 49 1014.3
20260902053122 66 82 2.0 4.0 0.00 0.00 0.00 51 1014.4
20260902052122 66 111 1.0 6.0 0.00 0.00 0.00 54 1014.4
20260902051122 66 0 0.0 0.0 0.00 0.00 0.00 54 1014.6
20260902050122 66 113 0.0 4.0 0.00 0.00 0.00 54 1014.5
20260902045143 66 0 0.0 0.0 0.00 0.00 0.00 55 1014.6
20260902044122 66 126 0.0 2.0 0.00 0.00 0.00 55 1014.5
20260902043122 66 124 1.0 3.0 0.00 0.00 0.00 53 1014.5
20260902042122 66 133 0.0 2.0 0.00 0.00 0.00 55 1014.7
20260902041122 66 124 0.0 3.0 0.00 0.00 0.00 56 1014.7
20260902040122 67 0 0.0 0.0 0.00 0.00 0.00 55 1014.7